User: anonymous   Login
Location: Berlin
(52.5170°N, 13.4000°E)
Time: 15:56:15
(UTC+02:00)
Language:

ISS - Orbit

View from above orbital plane
View from above orbital plane
View from above satellite
View from above satellite

Ground track
Ground track

The orbit data is extracted from the following two-line orbital elements,

1 25544U 98067A   18177.39519449  .00016717  00000-0  10270-3 0  9049
2 25544  51.6398 332.8153 0003643 235.8045 124.2763 15.53952164 39943
Epoch (UTC): 26 June 2018 09:29:04
Eccentricity: 0.0003643
inclination: 51.6398°
perigee height: 403 km
apogee height: 407 km
right ascension of ascending node: 332.8153°
argument of perigee: 235.8045°
revolutions per day: 15.53952164
mean anomaly at epoch: 124.2763°
orbit number at epoch: 3994

The dashed part of the orbit path shows where the satellite is in the earth's shadow,  

DLR